User: anonymous   Login
Location: Dompnac
(44.5644°N, 4.1026°E)
Time: 22:53:50
(UTC+00:00)
Language:

Cosmos 1891 Rocket - Orbit

View from above orbital plane
View from above orbital plane
View from above satellite
View from above satellite

Ground track
Ground track

The orbit data is extracted from the following two-line orbital elements,

1 18403U 87087B   20332.25230462  .00000028  00000-0  13548-4 0  9995
2 18403  82.9205 234.0903 0056226 262.5736  96.9030 13.76535341663490
Epoch (UTC): 27 November 2020 06:03:19
Eccentricity: 0.0056226
inclination: 82.9205°
perigee height: 935 km
apogee height: 1017 km
right ascension of ascending node: 234.0903°
argument of perigee: 262.5736°
revolutions per day: 13.76535341
mean anomaly at epoch: 96.9030°
orbit number at epoch: 66349

The dashed part of the orbit path shows where the satellite is in the earth's shadow,  

DLR